DELTA 1 DEB, 21333

Orbit data source: Space-Track

DELTA 1 DEB, 21333 is space debris in SSO originally from a launch on Thu, 12 Jun 1975 UTC launched from the Air Force Western Test Range (AFWTR). Debris objects in space refer to the collection of defunct objects orbiting the Earth. Examples of debris include non-operational satellites, rocket bodies, and fragments generated from explosions, collisions, or faulty payload assembly.

Loading next visibility...
Identifier
21333, 1975-052BB
Orbit
SSO
Country
Flag of USUS
Related business
Manufacturer
Unknown
Mission
Spacecraft
Bus & Motor
Unknown
Mass
Unknown
Launch date (UTC)
1975-06-12 (51 years ago)
Launch vehicle
Unknown
Launch site
Air Force Western Test Range (AFWTR)
Object type
Payload
Rocket body
Debris
Shape & HBR
Unknown shape, 0.2 m
Radar Cross Section
Small (<0.1 m²)

Expand to show TLE details & history
Last TLE update: 6 hours ago

TLE from 6 hours ago
0 DELTA 1 DEB
1 21333U 75052BB  26127.17231541  .00000033  00000-0  12904-3 0  9998
2 21333  99.7953 283.3697 0003222 216.5488 322.8564 13.45482513718638
Epoch: 2026-05-07T04:08Z
TLE epoch observation values (Epoch: 2026-05-07T04:08:08.051Z)
Latitude
0.49957°
Longitude
176.39969°
Altitude
1,089.72 km
Speed
7.308 km/s
True Right ascension
06h 53m 49s
True Declination
0° 29' 48"
Sunlit
Object was in daylight at epoch
Visualization orbit readout
Latitude
Unknown
Longitude
Unknown
Altitude
Unknown
Speed
Unknown
Apparent Right ascension
Unknown
Apparent Declination
Unknown
Sunlit
N/A
Visualization observer readout
Local Sidereal Time
18:16:14
Azimuth
Unknown
Elevation
Unknown
Doppler factor
Unknown
Orbital elements
Apogee altitude
1,088.643 km
Perigee altitude
1,083.833 km
Semi-major axis
7,464.375 km
Eccentricity
0.00032
Inclination
99.7953°
RAAN
283.3697°
Arg. of periapsis
216.5488°
True anomaly
322.8341°
Mean anomaly
322.8564°
Eccentric anomaly
322.84525°
Mean motion
3.36553 °/min
Orbital period
106.97 mins
BSTAR
0.00012904
Loading maneuver chart data...
Computing Atmospheric mass density...
Loading historical data...
Loading historical data...
Loading historical data...
Loading historical data...
Loading historical data...
Loading historical data...
Loading historical data...

Documentation

Showing up to 5 results
|